Location: Buisson
(44.2787°N, 4.9969°E)
Time: 07:01:22
(UTC+00:00)

Cosmos 1300 Rocket - Pass Details

Date: 18 April 2021
Orbit: 603 x 625 km, 82.5° (Epoch: 05 May)

Event Time Altitude Azimuth Distance (km) Brightness Sun altitude
Rises 02:43:14 0° 356° (N) 2,920 7.5 -20.9°
Reaches altitude 10° 02:45:32 10° 2° (N) 2,009 6.7 -20.6°
Maximum altitude 02:49:52 50° 78° (ENE) 798 4.4 -20.0°
Drops below altitude 10° 02:54:10 10° 154° (SSE) 1,992 6.0 -19.4°
Enters shadow 02:56:03 - 159° (SSE) 2,733 6.7 -19.2°
